Home   Weather   Mudgee   Past weeks
Flag for Australia

Past Weather in Mudgee, New South Wales, Australia — Yesterday and Last 2 Weeks

Now
21 °F

Passing clouds.


Feels Like: 15 °F
Forecast: 52 / 28 °F
Wind: 5 mph from Northeast

Location: Mudgee Aws

Current Time: Jun 21, 2019 at 7:35:55 am

Latest Report: Jun 21, 2019 at 6:00 am


Visibility: 0 mi

Pressure: 30.21 "Hg

Humidity: 97%

Dew Point: 20 °F

Location of MudgeeLocation

Past Weather in Mudgee — Graph

°F

Mudgee Temperature Yesterday

Maximum temperature yesterday: 56 °F (at 2:00 pm)
Minimum temperature yesterday: 24 °F (at 6:00 am)
Average temperature yesterday: 38 °F

High & Low Weather Summary for the Past Weeks

 TemperatureHumidityPressure
High71 °F (Jun 11, 3:00 pm)100% (Jun 9, 11:00 am)30.61 "Hg (Jun 9, 11:00 am)
Low21 °F (Jun 21, 6:00 am)28% (Jun 19, 2:00 pm)30.06 "Hg (Jun 13, 2:00 pm)
Average46 °F83%30.24 "Hg
* Reported Jun 6 6:00 am — Jun 21 6:00 am, Mudgee. Weather by CustomWeather, © 2019

Note: Actual official high and low records may vary slightly from our data, if they occured in-between our weather recording intervals... More about our weather records

Advertising

Mudgee Weather History for the Previous 24 Hours

Scroll right to see more
 ConditionsComfort  
Time TempWeatherWind HumidityBarometerVisibility
6:00 am
Fri, Jun 21
21 °FPassing clouds.5 mph97%30.21 "Hg0 mi
5:00 am25 °FCold.No wind98%30.20 "HgN/A
3:00 am24 °FCold.6 mph97%30.21 "HgN/A
2:00 am26 °FChilly.1 mph97%30.21 "HgN/A
12:00 am28 °FChilly.3 mph97%30.22 "HgN/A
11:00 pm
Thu, Jun 20
28 °FChilly.6 mph95%30.22 "HgN/A
9:00 pm32 °FChilly.7 mph89%30.22 "HgN/A
8:00 pm33 °FChilly.8 mph86%30.21 "HgN/A
6:00 pm44 °FQuite cool.No wind64%30.18 "HgN/A
5:00 pm51 °FCool.5 mph50%30.16 "HgN/A
3:00 pm56 °FPassing clouds.12 mph43%30.16 "HgN/A
2:00 pm56 °FRefreshingly cool.10 mph43%30.16 "HgN/A
12:00 pm55 °FPartly sunny.8 mph50%30.20 "HgN/A
11:00 am51 °FCool.3 mph58%30.23 "HgN/A
9:00 am38 °FChilly.5 mph91%30.26 "HgN/A
8:00 am28 °FChilly.No wind97%30.26 "HgN/A
Weather by CustomWeather, © 2019

See weather overview